Погода в Стрые

Украина / Львовская область     49°15′29″N   23°50′34″E
темп.,
°C
ветер,
м/с
пор.,
м/с
влажн.,
%
обл.,
%
осадки,
мм/ч
давл.,
гПа
погр.,
м
4 марта, чт
чт423:00+3юз388315 0.0 1025138
02:00+5юз516817 0.0 1023382
05:00+6зюз7187329 0.0 1020465
08:00+5зюз6177439 0.0 1019391
11:00+10зюз7135791 0.0 1017661
14:00+12зюз7115146 0.0 10141287
17:00+10зюз510635 0.0 1013696
20:00+7зюз4127340 0.0 1013399
5 марта, пт
пт523:00+6юз3987100 1.4 1013392
02:00+5св2296100 3.1 1012128
05:00+3с2397100 1.8 1011165
08:00+1с6898100 6.6 1012349
11:00+1сз4699100 4.8 1014303
14:000с5898100 6.6 1015447
17:00−1ссв5897100 3.2 1017559
20:00−1сз2690100 4.1 1021371
6 марта, сб
сб623:00−4сз3487100 0.0 102479
02:00−6з338650 0.0 102647
05:00−6з33820 0.0 102772
08:00−4з398210 0.0 1029364
11:00−1сз687918 0.1 10301046
14:000сз686426 0.4 10301577
17:00−1сз46683 0.1 10311130
20:00−4зюз23794 0.1 103246
7 марта, вс
вс723:00−4юз35780 0.0 1032113
02:00−4юз35770 0.0 1031120
05:00−4юз412730 0.0 1028355
08:00−3зюз616690 0.0 1027571
11:00+2зюз812590 0.0 10251081
14:00+4зюз711540 0.0 10221257
17:00+2зюз512639 0.0 1020771
20:000зюз716664 0.0 1020467
8 марта, пн
пн823:00−1зюз615680 0.0 1020427
02:00−1зюз513700 0.0 1019366
05:00−2зюз4107479 0.0 1018276
08:00−1зюз497390 0.0 1017293
11:00+3з475883 0.0 10171320
14:00+4зсз576392 0.1 10161309
17:00+2зсз597492 0.1 1016888
20:00−1сз369892 0.9 1019262